Regional Weather Roundup
Issued by NWS

Home | Current Version | Previous Version | Text Only | Print | Product List | Glossary On
Versions: 1 2 3 4 5 6 7 8 9 10 11 12 13 14 15 16 17 18 19 20 21 22 23 24 25 26 27 28 29 30 31 32 33 34 35 36 37 38 39 40 41 42 43 44 45 46 47 48 49 50
000
ASUS43 KDMX 290907
RWRIA

WEATHER ROUNDUP FOR IOWA
NATIONAL WEATHER SERVICE DES MOINES IA
400 AM CDT TUE JUL 29 2014

NOTE: "FAIR" INDICATES FEW OR NO CLOUDS BELOW 12,000 FEET WITH NO
SIGNIFICANT WEATHER AND/OR OBSTRUCTIONS TO VISIBILITY.

* - THESE STATIONS ARE NOT NWS STATIONS...THUS NOT UNDER NWS
QUALITY CONTROL.  THEY ALSO DO NOT REPORT WEATHER SUCH
AS PRECIPITATION OR FOG.

IAZ001>003-012>014-020>022-031>034-043>046-291000-
   NORTHWEST IOWA

CITY           SKY/WX    TMP DP  RH WIND       PRES   REMARKS
CARROLL *      PTCLDY    52  52 100 W7        30.18F
CHEROKEE *     CLEAR     52  52 100 CALM      30.20S
DENISON *      CLEAR     54  54 100 CALM      30.18S
LE MARS *      PTCLDY    52  52 100 CALM      30.21S FOG
ORANGE CITY *  CLEAR     55  52  88 CALM      30.20F
SHELDON *      CLEAR     48  46  93 CALM      30.20S
SIOUX CITY     CLEAR     54  53  97 CALM      30.20F
SPENCER        CLEAR     50  48  93 W5        30.19F
STORM LAKE *   CLEAR     54  54 100 N7        30.20F
$$

IAZ055>058-069>071-079>083-090>094-291000-
   SOUTHWEST IOWA

CITY           SKY/WX    TMP DP  RH WIND       PRES   REMARKS
ATLANTIC *     CLEAR     54  54 100 N5        30.17F
AUDUBON *      CLEAR     54  52  94 N3        30.19F
CLARINDA *     CLEAR     55  55 100 N5        30.18F
COUNCIL BLFS * MOCLDY    59  59 100 N5        30.17F
CRESTON *      CLEAR     57  57 100 NW3       30.17F FOG
HARLAN  *      CLEAR     55  55 100 N5        30.21F
LAMONI         CLEAR     59  56  89 N5        30.16F
RED OAK *      CLEAR     55  54  94 CALM      30.17F
SHENANDOAH *   CLEAR     54  52  94 S3        30.18S
$$

IAZ047>049-059>061-072>074-084-291000-
   CENTRAL IOWA

CITY           SKY/WX    TMP DP  RH WIND       PRES   REMARKS
AMES           CLEAR     58  54  86 NW5       30.16S
ANKENY *       CLEAR     55  55 100 CALM      30.16S
CHARITON *     CLEAR     57  55  94 W6        30.16S
DES MOINES     CLEAR     60  56  86 CALM      30.15F
GRINNELL*      CLEAR     55  54  94 NW3       30.15F
KNOXVILLE *    CLEAR     57  55  94 NW7       30.14F
MARSHALLTOWN   CLEAR     54  53  97 W6        30.14F
PELLA *        CLEAR     55  55 100 NW3       30.16S
PERRY *          N/A     54  54 100 W6        30.17F
$$

IAZ004>006-015-016-023>025-035-036-291000-
   NORTH CENTRAL IOWA

CITY           SKY/WX    TMP DP  RH WIND       PRES   REMARKS
ALGONA *       CLEAR     57  54  88 NW6       30.17F
CLARION *      CLEAR     54  54 100 CALM      30.16F
ESTHERVILLE    CLEAR     54  52  93 NW7       30.18S
FORT DODGE *   CLEAR     55  52  88 CALM      30.18S
MASON CITY     CLEAR     53  52  96 NW8       30.16F
FOREST CITY *  CLEAR     54  54 100 CALM      30.16S
IOWA FALLS *     N/A     55  54  94 W3        30.16F
$$

IAZ007>011-017>019-026>030-037>042-050>054-066-291000-
   NORTHEAST IOWA

CITY           SKY/WX    TMP DP  RH WIND       PRES   REMARKS
CEDAR RAPIDS   CLEAR     52  50  93 W7        30.11F
CHARLES CITY * CLEAR     54  54 100 W5        30.14S
CLINTON *      CLEAR     52  48  87 W6        30.12S
DECORAH *      CLEAR     55  54  94 CALM      30.10F
DUBUQUE        CLEAR     56  52  86 W6        30.10F
MONTICELLO *   CLEAR     52  52 100 CALM      30.11S
OELWEIN *      CLEAR     54  52  94 W6        30.13S
WATERLOO       CLEAR     56  54  93 W6        30.12F
$$

IAZ064-065-067-068-078-291000-
   EAST CENTRAL IOWA

CITY           SKY/WX    TMP DP  RH WIND       PRES   REMARKS
DAVENPORT      CLEAR     51  49  92 W7        30.11S
IOWA CITY      CLEAR     57  55  93 CALM      30.13F
MT. PLEASANT * CLEAR     61  57  88 NW5       30.13S
MUSCATINE *    CLEAR     59  55  88 CALM      30.12S
QUAD CITIES    CLEAR     55  52  89 CALM      30.10F
$$

IAZ062-063-075>077-085>089-095>099-291000-
   SOUTHEAST IOWA

CITY           SKY/WX    TMP DP  RH WIND       PRES   REMARKS
BURLINGTON     CLEAR     58  56  93 NW7       30.12S
FAIRFIELD *    CLEAR     57  54  88 NW6       30.13F
FORT MADISON * PTCLDY    59  57  94 NW3       30.13S
KEOKUK *       CLEAR     59  57  94 NW3       30.12S
OSKALOOSA *      N/A     55  54  94 NW7       30.14F
CENTERVILLE *  CLEAR     55  55 100 W5        30.17S
OTTUMWA        CLEAR     57  55  93 NW7       30.14F
WASHINGTON *   CLEAR     57  55  94 NW7       30.13S
$$

ABBREVIATIONS USED IN REMARKS
   TC - TEMPERATURES IN CELSIUS
  WCI - WIND CHILL INDEX
   HX - HEAT INDEX
  VSB - VISIBILITY
$$




USA.gov is the U.S. government's official web portal to all federal, state and local government web resources and services.